• Em Portugal
  • Lista de países
  • Para 7 dias
  • Temperatura da água
  • Mapas de satélite
  • Mapa do tempo
  • Widgets de tempo
  • user-avatar
    Iniciar Sessão

    Previsão horária em Tomislaw

    Hoje, 21 Setembro, Sexta-feira

    Tempo Temperatura Precipitação Vento Pressão Humidade
    00:00 +21°C° 0.1 mm 3 m/s 745 mmHg 64%
    01:00 +21°C° 0.1 mm 3 m/s 745 mmHg 66%
    02:00 +20°C° 0 mm 3 m/s 744 mmHg 67%
    03:00 +20°C° 0 mm 3 m/s 744 mmHg 68%
    04:00 +20°C° 0 mm 3 m/s 744 mmHg 69%
    05:00 +20°C° 0 mm 3 m/s 744 mmHg 67%
    06:00 +20°C° 0 mm 4 m/s 743 mmHg 66%
    07:00 +21°C° 0 mm 3 m/s 743 mmHg 69%
    08:00 +23°C° 0 mm 4 m/s 743 mmHg 61%
    09:00 +25°C° 0 mm 5 m/s 743 mmHg 53%
    10:00 +27°C° 0 mm 6 m/s 742 mmHg 46%
    11:00 +28°C° 0 mm 6 m/s 742 mmHg 43%
    12:00 +29°C° 0 mm 6 m/s 741 mmHg 40%
    13:00 +30°C° 0 mm 6 m/s 741 mmHg 37%
    14:00 +30°C° 0 mm 6 m/s 740 mmHg 38%
    15:00 +30°C° 0 mm 5 m/s 740 mmHg 39%
    16:00 +29°C° 0 mm 5 m/s 739 mmHg 40%
    17:00 +27°C° 0.3 mm 5 m/s 739 mmHg 48%
    18:00 +25°C° 0.3 mm 5 m/s 740 mmHg 57%
    19:00 +22°C° 0.3 mm 5 m/s 740 mmHg 65%
    20:00 +20°C° 0.7 mm 6 m/s 741 mmHg 70%
    21:00 +17°C° 0.7 mm 6 m/s 742 mmHg 75%
    22:00 +15°C° 0.7 mm 6 m/s 743 mmHg 81%
    23:00 +14°C° 0.2 mm 5 m/s 743 mmHg 78%

    Amanhã, 22 Setembro, Sábado

    Tempo Temperatura Precipitação Vento Pressão Humidade
    00:00 +14°C° 0.2 mm 4 m/s 744 mmHg 76%
    01:00 +13°C° 0.2 mm 3 m/s 745 mmHg 74%
    02:00 +12°C° 0 mm 3 m/s 745 mmHg 74%
    03:00 +12°C° 0 mm 4 m/s 746 mmHg 74%
    04:00 +11°C° 0 mm 4 m/s 746 mmHg 74%
    05:00 +11°C° 0 mm 4 m/s 746 mmHg 72%
    06:00 +10°C° 0 mm 5 m/s 747 mmHg 71%
    07:00 +10°C° 0 mm 5 m/s 747 mmHg 69%
    08:00 +12°C° 0 mm 5 m/s 747 mmHg 64%
    09:00 +13°C° 0 mm 6 m/s 747 mmHg 58%
    10:00 +15°C° 0 mm 6 m/s 747 mmHg 53%
    11:00 +15°C° 0 mm 6 m/s 747 mmHg 51%
    12:00 +16°C° 0 mm 6 m/s 747 mmHg 49%
    13:00 +16°C° 0 mm 6 m/s 747 mmHg 47%
    14:00 +16°C° 0 mm 6 m/s 747 mmHg 46%
    15:00 +16°C° 0 mm 6 m/s 747 mmHg 46%
    16:00 +16°C° 0 mm 6 m/s 747 mmHg 46%
    17:00 +15°C° 0 mm 5 m/s 747 mmHg 49%
    18:00 +14°C° 0 mm 4 m/s 747 mmHg 53%
    19:00 +13°C° 0 mm 3 m/s 747 mmHg 57%
    20:00 +13°C° 0 mm 3 m/s 747 mmHg 58%
    21:00 +12°C° 0 mm 3 m/s 747 mmHg 60%
    22:00 +12°C° 0 mm 3 m/s 748 mmHg 62%
    23:00 +12°C° 0 mm 3 m/s 748 mmHg 63%

    Depois de amanhã, 23 Setembro, Domingo

    Tempo Temperatura Precipitação Vento Pressão Humidade
    00:00 +12°C° 0 mm 3 m/s 748 mmHg 64%
    01:00 +12°C° 0 mm 3 m/s 748 mmHg 65%
    02:00 +11°C° 0 mm 3 m/s 748 mmHg 68%
    03:00 +11°C° 0 mm 3 m/s 747 mmHg 71%
    04:00 +11°C° 0 mm 3 m/s 747 mmHg 74%
    05:00 +11°C° 0 mm 3 m/s 747 mmHg 73%
    06:00 +11°C° 0 mm 3 m/s 747 mmHg 73%
    07:00 +11°C° 0 mm 3 m/s 748 mmHg 73%
    08:00 +13°C° 0 mm 4 m/s 748 mmHg 68%
    09:00 +14°C° 0 mm 4 m/s 748 mmHg 63%
    10:00 +15°C° 0 mm 4 m/s 748 mmHg 58%
    11:00 +15°C° 0.1 mm 4 m/s 747 mmHg 59%
    12:00 +16°C° 0.1 mm 3 m/s 747 mmHg 60%
    13:00 +16°C° 0.1 mm 3 m/s 746 mmHg 61%
    14:00 +14°C° 0.1 mm 3 m/s 746 mmHg 66%
    15:00 +14°C° 0.1 mm 2 m/s 745 mmHg 70%
    16:00 +14°C° 0.1 mm 2 m/s 745 mmHg 75%
    17:00 +13°C° 0.5 mm 2 m/s 744 mmHg 79%
    18:00 +13°C° 0.5 mm 2 m/s 743 mmHg 83%
    19:00 +12°C° 0.5 mm 2 m/s 742 mmHg 87%
    20:00 +11°C° 3.7 mm 3 m/s 740 mmHg 89%
    21:00 +12°C° 3.7 mm 3 m/s 738 mmHg 91%
    22:00 +12°C° 3.7 mm 4 m/s 737 mmHg 93%
    23:00 +12°C° 5.5 mm 5 m/s 736 mmHg 93%

    24 Setembro, Segunda-feira

    Tempo Temperatura Precipitação Vento Pressão Humidade
    00:00 +10°C° 5.5 mm 6 m/s 735 mmHg 93%
    01:00 +10°C° 5.5 mm 6 m/s 734 mmHg 93%
    02:00 +9°C° 1.3 mm 7 m/s 736 mmHg 92%
    03:00 +8°C° 1.3 mm 7 m/s 737 mmHg 91%
    04:00 +6°C° 1.3 mm 8 m/s 739 mmHg 90%
    05:00 +6°C° 0.4 mm 8 m/s 741 mmHg 88%
    06:00 +7°C° 0.4 mm 8 m/s 743 mmHg 86%
    07:00 +8°C° 0.4 mm 7 m/s 745 mmHg 84%
    08:00 +7°C° 0.1 mm 8 m/s 746 mmHg 79%
    09:00 +9°C° 0.1 mm 8 m/s 747 mmHg 74%
    10:00 +9°C° 0.1 mm 8 m/s 748 mmHg 69%
    11:00 +10°C° 0.1 mm 9 m/s 749 mmHg 63%
    12:00 +11°C° 0.1 mm 9 m/s 749 mmHg 57%
    13:00 +11°C° 0.1 mm 9 m/s 749 mmHg 51%
    14:00 +11°C° 0.1 mm 9 m/s 750 mmHg 50%
    15:00 +11°C° 0.1 mm 8 m/s 750 mmHg 49%
    16:00 +11°C° 0.1 mm 8 m/s 751 mmHg 48%
    17:00 +10°C° 0 mm 7 m/s 751 mmHg 53%
    18:00 +9°C° 0 mm 6 m/s 752 mmHg 57%
    19:00 +7°C° 0 mm 4 m/s 753 mmHg 62%
    20:00 +7°C° 0 mm 4 m/s 753 mmHg 64%
    21:00 +7°C° 0 mm 4 m/s 754 mmHg 65%
    22:00 +6°C° 0 mm 4 m/s 755 mmHg 67%
    23:00 +6°C° 0 mm 4 m/s 755 mmHg 69%

    25 Setembro, Terça-feira

    Tempo Temperatura Precipitação Vento Pressão Humidade
    00:00 +6°C° 0 mm 4 m/s 755 mmHg 71%
    01:00 +5°C° 0 mm 4 m/s 756 mmHg 74%
    02:00 +5°C° 0 mm 4 m/s 756 mmHg 75%
    03:00 +5°C° 0 mm 4 m/s 757 mmHg 77%
    04:00 +4°C° 0 mm 4 m/s 757 mmHg 79%
    05:00 +4°C° 0 mm 4 m/s 758 mmHg 78%
    06:00 +5°C° 0 mm 4 m/s 758 mmHg 77%
    07:00 +5°C° 0 mm 4 m/s 759 mmHg 76%
    08:00 +6°C° 0 mm 4 m/s 760 mmHg 66%
    09:00 +8°C° 0 mm 4 m/s 760 mmHg 57%
    10:00 +11°C° 0 mm 4 m/s 761 mmHg 47%
    11:00 +12°C° 0 mm 4 m/s 760 mmHg 46%
    12:00 +13°C° 0 mm 4 m/s 760 mmHg 44%
    13:00 +13°C° 0 mm 4 m/s 760 mmHg 43%
    14:00 +13°C° 0 mm 4 m/s 760 mmHg 44%
    15:00 +13°C° 0 mm 4 m/s 760 mmHg 45%
    16:00 +13°C° 0 mm 4 m/s 760 mmHg 46%
    17:00 +11°C° 0 mm 4 m/s 760 mmHg 52%
    18:00 +10°C° 0 mm 3 m/s 760 mmHg 58%
    19:00 +8°C° 0 mm 2 m/s 760 mmHg 65%
    20:00 +8°C° 0 mm 2 m/s 760 mmHg 65%
    21:00 +8°C° 0 mm 3 m/s 760 mmHg 66%
    22:00 +7°C° 0 mm 3 m/s 760 mmHg 66%
    23:00 +7°C° 0 mm 3 m/s 760 mmHg 66%

    26 Setembro, Quarta-feira

    Tempo Temperatura Precipitação Vento Pressão Humidade
    00:00 +7°C° 0 mm 3 m/s 759 mmHg 66%
    01:00 +7°C° 0 mm 3 m/s 759 mmHg 66%
    02:00 +5°C° 0 mm 3 m/s 759 mmHg 66%
    03:00 +5°C° 0 mm 3 m/s 759 mmHg 66%
    04:00 +5°C° 0 mm 3 m/s 758 mmHg 66%
    05:00 +5°C° 0 mm 3 m/s 758 mmHg 66%
    06:00 +7°C° 0 mm 3 m/s 758 mmHg 65%
    07:00 +7°C° 0 mm 3 m/s 758 mmHg 65%
    08:00 +9°C° 0 mm 3 m/s 758 mmHg 58%
    09:00 +11°C° 0 mm 3 m/s 758 mmHg 52%
    10:00 +13°C° 0 mm 4 m/s 757 mmHg 45%
    11:00 +14°C° 0 mm 4 m/s 757 mmHg 42%
    12:00 +15°C° 0 mm 4 m/s 757 mmHg 40%
    13:00 +17°C° 0 mm 4 m/s 756 mmHg 37%
    14:00 +17°C° 0 mm 4 m/s 756 mmHg 38%
    15:00 +17°C° 0 mm 3 m/s 755 mmHg 40%
    16:00 +17°C° 0 mm 3 m/s 755 mmHg 41%
    17:00 +14°C° 0 mm 3 m/s 755 mmHg 47%
    18:00 +13°C° 0 mm 2 m/s 754 mmHg 52%
    19:00 +10°C° 0 mm 2 m/s 754 mmHg 58%
    20:00 +10°C° 0 mm 2 m/s 754 mmHg 58%
    21:00 +10°C° 0 mm 2 m/s 754 mmHg 58%
    22:00 +9°C° 0 mm 2 m/s 754 mmHg 58%
    23:00 +9°C° 0 mm 2 m/s 754 mmHg 58%
    Mostrar mais